Total_Precipitation_Accumulation
0.00 0.00 0.01 0.02 0.01 0.03 0.04 0.04 0.08 0.08 0.07 0.07 0.13 0.29 0.47 0.54 0.66 0.67 0.60 0.56 0.58 0.61 0.70 0.85 1.01 1.23 1.50 1.70 1.78 1.91 2.06 2.27 2.48 2.78 3.10 3.26 3.34 3.55 3.70 3.83 3.98 3.95 3.91 4.01
0.00 0.00 0.00 0.00 0.00 0.00 0.01 0.04 0.07 0.07 0.09 0.11 0.20 0.34 0.48 0.55 0.62 0.71 0.73 0.73 0.70 0.73 0.82 1.11 1.38 1.72 1.85 1.92 1.96 2.07 2.19 2.46 2.74 3.12 3.57 3.99 4.16 4.29 4.31 4.36 4.58 4.69 4.71 4.87
0.01 0.00 0.00 0.00 0.01 0.01 0.01 0.03 0.06 0.09 0.08 0.13 0.28 0.51 0.66 0.65 0.72 0.79 0.85 0.99 0.94 0.96 1.11 1.35 1.60 1.74 1.89 1.96 2.06 2.18 2.50 2.91 3.35 3.83 4.35 4.77 5.04 5.09 5.02 4.73 4.84 4.98 4.94 5.01
0.01 0.00 0.00 0.01 0.01 0.02 0.02 0.02 0.04 0.06 0.08 0.15 0.24 0.58 0.88 0.89 0.93 0.87 0.92 1.04 1.00 1.03 1.16 1.33 1.55 1.77 1.85 1.98 2.16 2.29 2.63 3.18 3.65 4.12 4.78 5.29 5.57 5.74 5.84 5.60 5.30 5.15 4.97 4.83
0.01 0.01 0.02 0.02 0.02 0.02 0.02 0.01 0.02 0.03 0.05 0.13 0.17 0.44 0.98 1.10 1.18 1.09 1.05 1.12 0.99 0.92 1.02 1.17 1.30 1.59 1.85 1.94 1.98 2.07 2.49 3.09 3.81 4.52 5.07 5.54 5.91 6.04 5.98 5.63 5.26 4.84 4.48 4.06
0.01 0.01 0.01 0.02 0.01 0.01 0.01 0.01 0.02 0.03 0.07 0.18 0.19 0.39 1.00 1.33 1.54 1.59 1.28 1.11 0.99 0.91 0.92 0.95 1.05 1.29 1.60 1.66 1.79 2.01 2.35 3.02 3.76 4.37 4.91 5.29 5.62 5.65 5.37 4.94 4.48 4.19 3.81 3.33
0.04 0.03 0.02 0.02 0.01 0.01 0.02 0.04 0.17 0.29 0.35 0.33 0.28 0.50 1.09 1.31 1.29 1.25 1.20 1.21 1.11 0.91 0.86 0.91 0.96 1.08 1.30 1.45 1.71 2.08 2.46 2.94 3.38 3.87 4.34 4.59 4.78 4.82 4.74 4.50 4.15 3.87 3.46 3.02
0.13 0.12 0.05 0.02 0.03 0.03 0.02 0.06 0.29 0.45 0.48 0.50 0.55 0.89 1.39 1.23 1.02 1.00 1.07 1.09 1.03 0.97 0.95 1.09 1.18 1.23 1.33 1.44 1.59 1.91 2.25 2.63 2.84 3.07 3.41 3.63 3.76 3.82 3.74 3.56 3.30 3.01 2.72 2.45
0.17 0.17 0.06 0.02 0.02 0.02 0.04 0.07 0.14 0.18 0.25 0.49 0.84 1.26 1.70 1.65 1.22 1.03 1.06 1.02 0.96 0.95 0.95 1.10 1.24 1.28 1.31 1.36 1.50 1.61 1.75 1.98 2.22 2.43 2.56 2.66 2.71 2.65 2.59 2.45 2.24 2.04 1.86 1.66
0.15 0.14 0.09 0.04 0.04 0.05 0.07 0.09 0.12 0.20 0.41 0.71 0.93 1.45 2.08 2.11 1.66 1.32 1.22 1.15 1.02 0.95 0.99 1.09 1.14 1.19 1.19 1.16 1.22 1.31 1.42 1.52 1.66 1.77 1.80 1.74 1.75 1.76 1.64 1.52 1.44 1.29 1.13 1.01
0.22 0.21 0.12 0.07 0.08 0.11 0.10 0.11 0.17 0.26 0.32 0.69 1.13 1.75 2.06 2.27 2.13 1.78 1.36 1.11 1.02 1.00 0.98 0.99 0.99 0.99 0.98 0.91 0.94 1.00 1.07 1.19 1.27 1.30 1.31 1.22 1.16 1.09 1.01 0.93 0.92 0.85 0.77 0.74
0.18 0.27 0.26 0.15 0.12 0.10 0.11 0.13 0.19 0.36 0.40 0.49 0.93 1.90 2.13 2.41 2.36 2.01 1.55 1.20 1.10 1.06 0.99 0.90 0.85 0.81 0.78 0.75 0.75 0.78 0.85 0.90 0.91 0.91 0.88 0.85 0.79 0.75 0.73 0.70 0.68 0.71 0.68 0.62
0.13 0.31 0.51 0.55 0.45 0.21 0.12 0.13 0.15 0.21 0.36 0.55 0.96 1.91 2.17 2.14 2.06 1.97 1.71 1.42 1.21 1.10 0.98 0.94 0.89 0.81 0.78 0.80 0.77 0.70 0.71 0.75 0.75 0.75 0.75 0.70 0.70 0.69 0.68 0.66 0.64 0.66 0.63 0.57
0.08 0.32 0.68 0.97 0.92 0.47 0.29 0.20 0.19 0.24 0.50 0.64 0.92 1.48 1.78 1.81 1.82 1.93 1.91 1.57 1.21 1.02 0.89 0.93 0.99 0.96 0.86 0.80 0.79 0.72 0.68 0.69 0.72 0.71 0.68 0.60 0.58 0.60 0.61 0.59 0.58 0.56 0.55 0.55
0.13 0.38 0.37 0.35 0.36 0.35 0.35 0.28 0.26 0.28 0.33 0.63 0.96 1.30 1.70 1.87 1.81 1.74 1.66 1.44 1.16 1.04 1.01 0.98 0.98 0.97 0.91 0.83 0.78 0.73 0.70 0.70 0.75 0.79 0.78 0.70 0.61 0.58 0.57 0.57 0.58 0.57 0.52 0.47
0.16 0.35 0.33 0.32 0.26 0.30 0.36 0.37 0.38 0.43 0.47 0.65 1.02 1.54 1.93 2.00 1.85 1.79 1.72 1.57 1.40 1.30 1.24 1.20 1.14 1.10 1.08 0.99 0.88 0.80 0.78 0.79 0.84 0.90 0.94 0.94 0.87 0.79 0.73 0.65 0.59 0.54 0.49 0.41
0.16 0.33 0.49 0.52 0.31 0.44 0.75 0.59 0.51 0.56 0.63 0.82 1.28 1.61 1.65 1.73 1.81 1.88 1.91 1.81 1.66 1.53 1.47 1.42 1.37 1.31 1.25 1.16 1.09 1.03 0.95 0.90 0.90 0.93 0.95 0.93 0.87 0.79 0.69 0.58 0.50 0.48 0.44 0.39
0.17 0.34 0.49 0.57 0.62 1.09 1.02 0.57 0.53 0.65 0.74 0.83 1.02 1.20 1.30 1.29 1.38 1.47 1.57 1.63 1.60 1.48 1.44 1.43 1.41 1.40 1.37 1.26 1.18 1.12 1.06 1.00 0.95 0.96 0.93 0.85 0.75 0.66 0.57 0.51 0.48 0.46 0.43 0.43
0.11 0.29 0.51 0.61 0.88 1.08 0.96 0.54 0.52 0.86 1.27 1.04 0.97 0.91 0.85 0.82 0.92 1.21 1.37 1.40 1.46 1.50 1.51 1.48 1.40 1.32 1.29 1.23 1.18 1.13 1.09 1.03 0.95 0.91 0.81 0.68 0.58 0.55 0.52 0.49 0.48 0.46 0.43 0.41
0.13 0.23 0.52 0.68 1.01 1.30 1.20 0.51 0.36 0.71 1.56 1.24 1.03 0.91 0.82 0.90 1.08 1.12 1.09 1.10 1.18 1.24 1.26 1.19 1.11 1.05 1.07 1.09 1.06 1.02 0.98 0.91 0.83 0.70 0.56 0.49 0.47 0.46 0.46 0.44 0.43 0.41 0.42 0.41
0.43 0.46 0.60 0.78 1.11 1.32 0.65 0.28 0.44 1.14 1.46 1.18 1.01 0.88 0.84 1.01 1.02 0.79 0.75 0.83 0.87 0.93 0.91 0.86 0.84 0.93 0.99 0.97 0.89 0.86 0.80 0.74 0.62 0.54 0.48 0.44 0.40 0.36 0.37 0.39 0.39 0.40 0.39 0.41
0.56 0.65 0.73 0.88 1.21 1.31 0.51 0.34 0.63 0.81 0.69 0.76 0.80 0.76 0.70 0.65 0.53 0.50 0.52 0.58 0.61 0.64 0.65 0.64 0.69 0.77 0.79 0.72 0.70 0.74 0.68 0.58 0.47 0.50 0.52 0.48 0.41 0.32 0.35 0.45 0.46 0.44 0.47 0.50
0.48 0.58 0.69 0.86 1.06 0.86 0.45 0.36 0.39 0.43 0.55 0.56 0.55 0.50 0.39 0.35 0.32 0.36 0.39 0.40 0.43 0.44 0.49 0.54 0.56 0.60 0.64 0.61 0.64 0.69 0.65 0.53 0.50 0.57 0.57 0.47 0.38 0.39 0.40 0.43 0.43 0.40 0.41 0.39
0.51 0.38 0.46 0.59 0.68 0.52 0.40 0.34 0.30 0.31 0.37 0.34 0.35 0.33 0.25 0.24 0.29 0.34 0.36 0.34 0.34 0.38 0.40 0.45 0.47 0.48 0.51 0.51 0.55 0.60 0.54 0.51 0.62 0.69 0.59 0.43 0.38 0.38 0.37 0.35 0.31 0.29 0.32 0.31
0.51 0.41 0.43 0.57 0.61 0.54 0.52 0.34 0.25 0.23 0.21 0.20 0.25 0.25 0.20 0.19 0.27 0.30 0.32 0.34 0.35 0.36 0.39 0.42 0.44 0.43 0.39 0.40 0.45 0.42 0.45 0.54 0.71 0.69 0.55 0.44 0.37 0.35 0.34 0.28 0.20 0.16 0.15 0.13
0.32 0.38 0.42 0.51 0.46 0.50 0.56 0.39 0.25 0.25 0.24 0.21 0.19 0.20 0.23 0.23 0.25 0.26 0.27 0.31 0.32 0.32 0.34 0.39 0.40 0.37 0.36 0.38 0.38 0.37 0.41 0.47 0.60 0.60 0.46 0.38 0.33 0.29 0.24 0.22 0.20 0.12 0.07 0.05